Location: Sungai Ketit
(2.6833°N, 113.2333°E)
Time: 19:28:36
(UTC+00:00)

SL-16 R/B - Pass Details

Date: 23 May 2024
Orbit: 839 x 849 km, 71.0° (Epoch: 19 June)

Event Time Altitude Azimuth Distance (km) Brightness Sun altitude
Rises 11:26:59 0° 196° (SSW) 3,387 5.3 -13.7°
Reaches altitude 10° 11:29:25 10° 196° (SSW) 2,452 4.6 -14.3°
Maximum altitude 11:35:03 87° 282° (WNW) 844 2.2 -15.6°
Drops below altitude 10° 11:40:41 10° 14° (NNE) 2,450 4.7 -16.9°
Sets 11:43:07 0° 15° (NNE) 3,384 5.4 -17.5°
